Date,Hires in thousands,Openings in thousands
01/01/2011,101000.0,61000.0
02/01/2011,86000.0,59000.0
03/01/2011,76000.0,64000.0
04/01/2011,80000.0,58000.0
05/01/2011,76000.0,64000.0
06/01/2011,88000.0,68000.0
07/01/2011,90000.0,71000.0
08/01/2011,93000.0,68000.0
09/01/2011,110000.0,71000.0
10/01/2011,100000.0,77000.0
11/01/2011,90000.0,68000.0
12/01/2011,94000.0,73000.0
01/01/2012,107000.0,77000.0
02/01/2012,98000.0,68000.0
03/01/2012,106000.0,85000.0
04/01/2012,96000.0,65000.0
05/01/2012,105000.0,73000.0
06/01/2012,105000.0,79000.0
07/01/2012,95000.0,70000.0
08/01/2012,105000.0,73000.0
09/01/2012,87000.0,78000.0
10/01/2012,93000.0,76000.0
11/01/2012,94000.0,76000.0
12/01/2012,88000.0,75000.0
01/01/2013,82000.0,64000.0
02/01/2013,67000.0,84000.0
03/01/2013,90000.0,92000.0
04/01/2013,89000.0,90000.0
05/01/2013,113000.0,89000.0
06/01/2013,76000.0,93000.0
07/01/2013,82000.0,73000.0
08/01/2013,88000.0,100000.0
09/01/2013,109000.0,89000.0
10/01/2013,87000.0,92000.0
11/01/2013,104000.0,91000.0
12/01/2013,85000.0,82000.0
01/01/2014,81000.0,86000.0
02/01/2014,76000.0,98000.0
03/01/2014,85000.0,95000.0
04/01/2014,110000.0,97000.0
05/01/2014,98000.0,97000.0
06/01/2014,83000.0,94000.0
07/01/2014,111000.0,112000.0
08/01/2014,89000.0,115000.0
09/01/2014,96000.0,117000.0
10/01/2014,100000.0,107000.0
11/01/2014,98000.0,120000.0
12/01/2014,103000.0,131000.0
01/01/2015,100000.0,119000.0
02/01/2015,109000.0,139000.0
03/01/2015,107000.0,118000.0
04/01/2015,104000.0,134000.0
05/01/2015,97000.0,125000.0
06/01/2015,104000.0,125000.0
07/01/2015,86000.0,126000.0
08/01/2015,87000.0,106000.0
09/01/2015,87000.0,111000.0
10/01/2015,91000.0,121000.0
11/01/2015,94000.0,114000.0
12/01/2015,139000.0,120000.0
01/01/2016,114000.0,135000.0
02/01/2016,113000.0,109000.0
03/01/2016,101000.0,153000.0
04/01/2016,114000.0,118000.0
05/01/2016,104000.0,116000.0
06/01/2016,111000.0,108000.0
07/01/2016,102000.0,114000.0
08/01/2016,104000.0,109000.0
09/01/2016,83000.0,112000.0
10/01/2016,94000.0,105000.0
11/01/2016,95000.0,116000.0
12/01/2016,106000.0,110000.0
01/01/2017,100000.0,113000.0
02/01/2017,99000.0,114000.0
03/01/2017,102000.0,113000.0
04/01/2017,101000.0,114000.0
05/01/2017,95000.0,114000.0
06/01/2017,109000.0,136000.0
07/01/2017,111000.0,125000.0
08/01/2017,107000.0,125000.0
09/01/2017,88000.0,143000.0
10/01/2017,100000.0,137000.0
11/01/2017,103000.0,139000.0
12/01/2017,106000.0,132000.0
01/01/2018,100000.0,135000.0
02/01/2018,103000.0,137000.0
03/01/2018,102000.0,140000.0
04/01/2018,104000.0,138000.0
05/01/2018,119000.0,157000.0
06/01/2018,115000.0,148000.0
07/01/2018,106000.0,136000.0
08/01/2018,107000.0,156000.0
09/01/2018,109000.0,152000.0
10/01/2018,110000.0,163000.0
11/01/2018,128000.0,163000.0
12/01/2018,110000.0,168000.0
01/01/2019,112000.0,154000.0
02/01/2019,111000.0,151000.0
03/01/2019,106000.0,160000.0
04/01/2019,117000.0,163000.0
05/01/2019,108000.0,157000.0
06/01/2019,110000.0,160000.0
07/01/2019,105000.0,158000.0
08/01/2019,118000.0,153000.0
09/01/2019,110000.0,149000.0
10/01/2019,116000.0,163000.0
11/01/2019,103000.0,140000.0
12/01/2019,109000.0,137000.0
01/01/2020,93000.0,150000.0
02/01/2020,104000.0,148000.0
03/01/2020,110000.0,126000.0
04/01/2020,65000.0,100000.0
05/01/2020,126000.0,120000.0
06/01/2020,141000.0,124000.0
07/01/2020,127000.0,163000.0
08/01/2020,119000.0,125000.0
09/01/2020,111000.0,122000.0
10/01/2020,107000.0,130000.0
11/01/2020,121000.0,127000.0
12/01/2020,97000.0,126000.0
01/01/2021,92000.0,106000.0
02/01/2021,122000.0,142000.0
03/01/2021,106000.0,169000.0
04/01/2021,111000.0,184000.0
05/01/2021,104000.0,198000.0
06/01/2021,109000.0,199000.0
07/01/2021,110000.0,212000.0
08/01/2021,102000.0,211000.0
09/01/2021,118000.0,220000.0
10/01/2021,119000.0,211000.0
11/01/2021,121000.0,209000.0
12/01/2021,120000.0,212000.0
01/01/2022,116000.0,227000.0
02/01/2022,113000.0,220000.0
03/01/2022,117000.0,219000.0
04/01/2022,108000.0,247000.0
05/01/2022,108000.0,226000.0
06/01/2022,109000.0,220000.0
07/01/2022,114000.0,202000.0
08/01/2022,115000.0,199000.0
09/01/2022,109000.0,203000.0
10/01/2022,108000.0,259000.0
11/01/2022,109000.0,268000.0
12/01/2022,111000.0,236000.0
01/01/2023,116000.0,224000.0
02/01/2023,111000.0,182000.0
03/01/2023,98000.0,188000.0
04/01/2023,111000.0,205000.0
05/01/2023,124000.0,183000.0
06/01/2023,108000.0,162000.0
07/01/2023,100000.0,165000.0
08/01/2023,109000.0,211000.0
09/01/2023,96000.0,206000.0
10/01/2023,108000.0,211000.0
11/01/2023,103000.0,205000.0
12/01/2023,95000.0,178000.0
01/01/2024,101000.0,163000.0
